Tracking 30743 objects as of 22-Jun-2025
HD Live streaming from Space Station
objects crossing your sky now

ARIANE 1 DEB

Track ARIANE 1 DEB now!


NORAD ID: 27732
Int'l Code: 1979-104S
Perigee: 853.7 km
Apogee: 40,862.2 km
Inclination: 16.1 °
Period: 745.3 minutes
Semi major axis: 27228 km
RCS: 0.2067 m2 (medium)
Launch date: December 24, 1979
Source: European Space Agency (ESA)
Launch site: FRENCH GUIANA (FRGUI)

Note: This is SATELLITE DEBRIS
Your satellite tracking list
Your tracking list is empty




NASA's NSSDC Master Catalog

Two Line Element Set (TLE):
1 27732U 79104S   25172.61558797 -.00000015  00000-0  50384-2 0  9996
2 27732  16.0667 102.4791 7346673   3.8284 359.4522  1.93221898 79070
Source of the keplerian elements: AFSPC